DLH407 EYVI-UKBB

Flight info

Callsign DLH407
Flight time 1h 28m
Altitude 36000
Route UPASI DCT VABER DCT ETUBO/N0462F350 DCT TOLPA/K0852F350 DCT OKROT M70 SLV
Aircraft B38M/M-SDE1FGHILORVWXY/HB1

Departure

Time 2026-05-08 16:45
Airport Vilnius International Airport (EYVI)

Arrival

Time 2026-05-08 18:13
Airport Boryspil International Airport (UKBB)
Time Latitude Longitude Altitude Speed Heading
2026-05-08 16:34 54.64260 25.28319 659 ft 0 kts 308°
2026-05-08 16:38 54.64255 25.28329 659 ft 2 kts 308°
2026-05-08 16:38 54.64246 25.28355 659 ft 3 kts 289°
2026-05-08 16:38 54.64244 25.28389 659 ft 3 kts 263°
2026-05-08 16:39 54.64250 25.28422 659 ft 3 kts 239°
2026-05-08 16:39 54.64264 25.28448 659 ft 2 kts 218°
2026-05-08 16:39 54.64264 25.28449 659 ft 0 kts 218°
2026-05-08 16:40 54.64242 25.28419 659 ft 7 kts 218°
2026-05-08 16:40 54.64188 25.28346 659 ft 13 kts 218°
2026-05-08 16:41 54.64094 25.28252 659 ft 18 kts 206°
2026-05-08 16:41 54.64006 25.28212 659 ft 21 kts 176°
2026-05-08 16:41 54.63781 25.28291 659 ft 29 kts 167°
2026-05-08 16:42 54.63497 25.28328 659 ft 22 kts 202°
2026-05-08 16:42 54.63337 25.28215 659 ft 28 kts 202°
2026-05-08 16:42 54.63211 25.28127 659 ft 31 kts 202°
2026-05-08 16:42 54.62995 25.27975 659 ft 36 kts 202°
2026-05-08 16:43 54.62748 25.27803 660 ft 35 kts 201°
2026-05-08 16:43 54.62583 25.27690 659 ft 17 kts 201°
2026-05-08 16:43 54.62463 25.27722 659 ft 15 kts 144°
2026-05-08 16:43 54.62416 25.27863 659 ft 12 kts 73°
2026-05-08 16:44 54.62439 25.27904 659 ft 0 kts 21°
2026-05-08 16:44 54.62581 25.27999 659 ft 61 kts 21°
2026-05-08 16:44 54.63266 25.28474 661 ft 149 kts 22°
2026-05-08 16:45 54.64361 25.29231 1276 ft 176 kts 22°
2026-05-08 16:45 54.65492 25.30015 2555 ft 179 kts 22°
2026-05-08 16:45 54.66715 25.30865 3390 ft 201 kts 22°
2026-05-08 16:45 54.68086 25.31820 4161 ft 224 kts 22°
2026-05-08 16:46 54.69579 25.32860 5105 ft 237 kts 21°
2026-05-08 16:46 54.71133 25.33947 6202 ft 243 kts 19°
2026-05-08 16:46 54.72731 25.35065 7217 ft 254 kts 18°
2026-05-08 16:46 54.74400 25.36235 8199 ft 262 kts 18°
2026-05-08 16:47 54.76081 25.37406 9242 ft 266 kts 17°
2026-05-08 16:47 54.77944 25.37886 9940 ft 276 kts 353°
2026-05-08 16:47 54.79818 25.37029 10679 ft 285 kts 334°
2026-05-08 16:47 54.81489 25.35092 11338 ft 296 kts 314°
2026-05-08 16:48 54.82663 25.32093 11962 ft 308 kts 293°
2026-05-08 16:48 54.83131 25.28425 12543 ft 323 kts 272°
2026-05-08 16:48 54.82758 25.24505 13254 ft 333 kts 251°
2026-05-08 16:48 54.81549 25.21046 14099 ft 341 kts 232°
2026-05-08 16:49 54.79701 25.18424 14957 ft 350 kts 214°
2026-05-08 16:49 54.77489 25.16688 15864 ft 357 kts 206°
2026-05-08 16:49 54.75180 25.15051 16804 ft 361 kts 205°
2026-05-08 16:49 54.72841 25.13415 17776 ft 363 kts 205°
2026-05-08 16:50 54.70695 25.11222 18728 ft 358 kts 221°
2026-05-08 16:50 54.68839 25.08321 19698 ft 357 kts 226°
2026-05-08 16:50 54.67044 25.05352 20644 ft 356 kts 227°
2026-05-08 16:50 54.65279 25.02381 21585 ft 354 kts 227°
2026-05-08 16:51 54.63528 24.99409 22528 ft 350 kts 227°
2026-05-08 16:51 54.61812 24.96478 23465 ft 344 kts 227°
2026-05-08 16:51 54.60129 24.93601 24399 ft 337 kts 227°
2026-05-08 16:51 54.58483 24.90784 25331 ft 328 kts 227°
2026-05-08 16:52 54.56881 24.88046 26237 ft 319 kts 227°
2026-05-08 16:52 54.55318 24.85377 26897 ft 318 kts 227°
2026-05-08 16:52 54.53712 24.82636 27074 ft 330 kts 227°
2026-05-08 16:52 54.52069 24.79836 27421 ft 335 kts 227°
2026-05-08 16:53 54.49368 24.73331 28057 ft 342 kts 247°
2026-05-08 16:53 54.48403 24.69533 28377 ft 349 kts 248°
2026-05-08 16:53 54.47477 24.65703 28705 ft 355 kts 249°
2026-05-08 16:54 54.46543 24.61742 29038 ft 361 kts 249°
2026-05-08 16:54 54.45601 24.57700 29392 ft 366 kts 250°
2026-05-08 16:54 54.44657 24.53616 29797 ft 370 kts 250°
2026-05-08 16:54 54.43707 24.49490 30199 ft 373 kts 250°
2026-05-08 16:55 54.42748 24.45328 30602 ft 376 kts 250°
2026-05-08 16:55 54.41781 24.41139 31004 ft 379 kts 250°
2026-05-08 16:55 54.40805 24.36915 31406 ft 381 kts 250°
2026-05-08 16:55 54.39821 24.32666 31800 ft 384 kts 250°
2026-05-08 16:56 54.38842 24.28389 32157 ft 386 kts 250°
2026-05-08 16:56 54.37904 24.24042 32517 ft 389 kts 251°
2026-05-08 16:56 54.36960 24.19683 32893 ft 391 kts 251°
2026-05-08 16:56 54.36008 24.15309 33270 ft 393 kts 251°
2026-05-08 16:57 54.35059 24.10962 33643 ft 394 kts 251°
2026-05-08 16:57 54.34097 24.06563 34018 ft 395 kts 250°
2026-05-08 16:57 54.33128 24.02143 34394 ft 396 kts 250°
2026-05-08 16:57 54.32159 23.97732 34768 ft 396 kts 250°
2026-05-08 16:58 54.31184 23.93308 35199 ft 395 kts 250°
2026-05-08 16:58 54.30218 23.88927 35659 ft 392 kts 250°
2026-05-08 16:58 54.29253 23.84562 35977 ft 393 kts 250°
2026-05-08 16:58 54.28273 23.80142 36000 ft 402 kts 250°
2026-05-08 16:59 54.26239 23.70992 36001 ft 420 kts 250°
2026-05-08 16:59 54.24113 23.61469 35999 ft 436 kts 250°
2026-05-08 17:00 54.21950 23.51824 35997 ft 438 kts 250°
2026-05-08 17:00 54.20515 23.47238 36001 ft 441 kts 236°
2026-05-08 17:00 54.18397 23.43424 35994 ft 445 kts 221°
2026-05-08 17:01 54.15755 23.40642 35994 ft 450 kts 207°
2026-05-08 17:01 54.12750 23.39081 36003 ft 455 kts 194°
2026-05-08 17:01 54.06489 23.37253 35996 ft 456 kts 192°
2026-05-08 17:02 54.00224 23.35561 35997 ft 456 kts 192°
2026-05-08 17:02 53.93939 23.33891 35997 ft 456 kts 192°
2026-05-08 17:03 53.87697 23.32239 35997 ft 456 kts 192°
2026-05-08 17:03 53.81412 23.30580 35997 ft 457 kts 192°
2026-05-08 17:04 53.75140 23.28930 35997 ft 457 kts 192°
2026-05-08 17:04 53.68857 23.27282 35997 ft 457 kts 192°
2026-05-08 17:05 53.62580 23.25640 35997 ft 457 kts 192°
2026-05-08 17:05 53.56290 23.24000 35996 ft 457 kts 192°
2026-05-08 17:06 53.50008 23.22367 35996 ft 457 kts 192°
2026-05-08 17:06 53.43723 23.20739 35996 ft 457 kts 192°
2026-05-08 17:07 53.37474 23.19124 35996 ft 457 kts 192°
2026-05-08 17:07 53.31192 23.17506 35996 ft 457 kts 192°
2026-05-08 17:08 53.24910 23.15892 35996 ft 457 kts 192°
2026-05-08 17:08 53.18622 23.14282 35996 ft 457 kts 192°
2026-05-08 17:09 53.12329 23.12675 35996 ft 457 kts 192°
2026-05-08 17:09 53.06082 23.11085 35997 ft 457 kts 192°
2026-05-08 17:10 52.99803 23.09491 35997 ft 457 kts 192°
2026-05-08 17:10 52.93488 23.07892 35996 ft 457 kts 192°
2026-05-08 17:11 52.87206 23.06307 35996 ft 457 kts 192°
2026-05-08 17:11 52.80960 23.04736 35996 ft 457 kts 192°
2026-05-08 17:12 52.74674 23.03159 35996 ft 457 kts 192°
2026-05-08 17:12 52.68388 23.01586 35996 ft 457 kts 192°
2026-05-08 17:13 52.62099 23.00017 35996 ft 457 kts 192°
2026-05-08 17:13 52.55816 22.98454 35997 ft 457 kts 192°
2026-05-08 17:14 52.49522 22.96968 35987 ft 458 kts 187°
2026-05-08 17:14 52.46321 22.97314 36003 ft 465 kts 172°
2026-05-08 17:14 52.43198 22.98740 36001 ft 467 kts 165°
2026-05-08 17:15 52.37031 23.02233 35996 ft 469 kts 163°
2026-05-08 17:15 52.30937 23.05841 35996 ft 469 kts 163°
2026-05-08 17:16 52.24798 23.09502 35997 ft 469 kts 163°
2026-05-08 17:16 52.18660 23.13154 35997 ft 469 kts 163°
2026-05-08 17:17 52.12528 23.16792 35997 ft 469 kts 163°
2026-05-08 17:17 52.06397 23.20419 35997 ft 469 kts 163°
2026-05-08 17:18 52.00253 23.24043 35996 ft 469 kts 163°
2026-05-08 17:18 51.94149 23.27633 35996 ft 469 kts 163°
2026-05-08 17:19 51.88007 23.31235 35996 ft 469 kts 163°
2026-05-08 17:19 51.81865 23.34826 35996 ft 469 kts 163°
2026-05-08 17:20 51.75721 23.38408 35996 ft 469 kts 163°
2026-05-08 17:20 51.69580 23.41978 35996 ft 469 kts 163°
2026-05-08 17:21 51.63439 23.45538 35997 ft 469 kts 163°
2026-05-08 17:21 51.57331 23.49067 35997 ft 469 kts 163°
2026-05-08 17:22 51.51187 23.52608 35997 ft 469 kts 163°
2026-05-08 17:22 51.45041 23.56141 35996 ft 469 kts 163°
2026-05-08 17:23 51.38894 23.59665 35996 ft 469 kts 163°
2026-05-08 17:23 51.33134 23.64556 35999 ft 477 kts 141°
2026-05-08 17:24 51.30888 23.68490 35991 ft 481 kts 128°
2026-05-08 17:24 51.29290 23.73183 36000 ft 484 kts 112°
2026-05-08 17:24 51.27555 23.83608 35995 ft 485 kts 104°
2026-05-08 17:25 51.26021 23.94034 35996 ft 485 kts 104°
2026-05-08 17:25 51.24485 24.04519 35996 ft 485 kts 104°
2026-05-08 17:26 51.22938 24.15009 35996 ft 485 kts 104°
2026-05-08 17:26 51.21383 24.25482 35996 ft 485 kts 104°
2026-05-08 17:27 51.19817 24.35966 35997 ft 485 kts 104°
2026-05-08 17:27 51.18243 24.46424 35997 ft 485 kts 104°
2026-05-08 17:28 51.16924 24.55144 35996 ft 485 kts 104°
2026-05-08 17:28 51.15332 24.65601 35996 ft 485 kts 104°
2026-05-08 17:29 51.13731 24.76042 35997 ft 485 kts 104°
2026-05-08 17:29 51.12132 24.86412 35997 ft 485 kts 104°
2026-05-08 17:30 51.10513 24.96841 35997 ft 485 kts 104°
2026-05-08 17:30 51.08883 25.07274 35996 ft 485 kts 104°
2026-05-08 17:31 51.07243 25.17701 35997 ft 485 kts 105°
2026-05-08 17:31 51.05595 25.28115 35997 ft 485 kts 105°
2026-05-08 17:32 51.03950 25.38449 35997 ft 485 kts 105°
2026-05-08 17:32 51.02285 25.48840 35996 ft 485 kts 105°
2026-05-08 17:33 51.00609 25.59236 35996 ft 485 kts 105°
2026-05-08 17:33 50.98925 25.69615 35996 ft 485 kts 105°
2026-05-08 17:34 50.97231 25.79991 35997 ft 485 kts 105°
2026-05-08 17:34 50.95526 25.90370 35997 ft 485 kts 105°
2026-05-08 17:35 50.93816 26.00720 35997 ft 485 kts 105°
2026-05-08 17:35 50.92106 26.11003 35996 ft 485 kts 105°
2026-05-08 17:36 50.90376 26.21345 35997 ft 485 kts 105°
2026-05-08 17:36 50.88638 26.31673 35996 ft 485 kts 105°
2026-05-08 17:37 50.86888 26.42014 35996 ft 485 kts 106°
2026-05-08 17:37 50.85131 26.52330 35996 ft 485 kts 106°
2026-05-08 17:38 50.83364 26.62642 35996 ft 485 kts 106°
2026-05-08 17:38 50.81601 26.72877 35996 ft 485 kts 106°
2026-05-08 17:39 50.79818 26.83164 35996 ft 485 kts 106°
2026-05-08 17:39 50.78025 26.93447 35996 ft 485 kts 106°
2026-05-08 17:40 50.76220 27.03749 35997 ft 485 kts 106°
2026-05-08 17:40 50.74424 27.13951 35997 ft 485 kts 106°
2026-05-08 17:41 50.72607 27.24219 35997 ft 485 kts 106°
2026-05-08 17:41 50.70780 27.34462 35996 ft 485 kts 107°
2026-05-08 17:42 50.68925 27.44697 35996 ft 485 kts 107°
2026-05-08 17:42 50.67071 27.54926 35996 ft 485 kts 107°
2026-05-08 17:43 50.65206 27.65160 35997 ft 485 kts 107°
2026-05-08 17:43 50.63332 27.75385 35997 ft 485 kts 107°
2026-05-08 17:44 50.61463 27.85528 35997 ft 485 kts 107°
2026-05-08 17:44 50.59569 27.95746 35997 ft 485 kts 107°
2026-05-08 17:45 50.57681 28.05879 35997 ft 485 kts 107°
2026-05-08 17:45 50.55774 28.16058 35996 ft 485 kts 107°
2026-05-08 17:46 50.53858 28.26231 35996 ft 485 kts 107°
2026-05-08 17:46 50.51932 28.36399 35996 ft 485 kts 107°
2026-05-08 17:47 50.49998 28.46559 35996 ft 485 kts 107°
2026-05-08 17:47 50.48383 28.54998 35996 ft 485 kts 108°
2026-05-08 17:48 50.46105 28.66852 35996 ft 485 kts 108°
2026-05-08 17:48 50.43447 28.76479 35994 ft 484 kts 116°
2026-05-08 17:49 50.40565 28.86009 35996 ft 484 kts 117°
2026-05-08 17:49 50.37667 28.95534 35996 ft 484 kts 117°
2026-05-08 17:50 50.34762 29.05041 35996 ft 484 kts 117°
2026-05-08 17:50 50.31851 29.14530 35996 ft 484 kts 117°
2026-05-08 17:51 50.28932 29.24010 35996 ft 483 kts 117°
2026-05-08 17:51 50.26004 29.33482 35996 ft 483 kts 117°
2026-05-08 17:52 50.24541 29.38201 35656 ft 482 kts 117°
2026-05-08 17:52 50.23080 29.42905 34798 ft 483 kts 117°
2026-05-08 17:52 50.20668 29.52799 32669 ft 497 kts 100°
2026-05-08 17:53 50.20471 29.58282 31790 ft 497 kts 88°
2026-05-08 17:53 50.21017 29.63423 31013 ft 494 kts 73°
2026-05-08 17:53 50.22270 29.68388 30189 ft 492 kts 64°
2026-05-08 17:53 50.23705 29.73267 29142 ft 496 kts 64°
2026-05-08 17:54 50.25182 29.78184 27950 ft 502 kts 63°
2026-05-08 17:54 50.26676 29.83109 27023 ft 501 kts 63°
2026-05-08 17:54 50.28165 29.88011 26181 ft 498 kts 63°
2026-05-08 17:54 50.29647 29.92889 25333 ft 495 kts 63°
2026-05-08 17:55 50.31117 29.97740 24486 ft 492 kts 63°
2026-05-08 17:55 50.32574 30.02559 23640 ft 485 kts 63°
2026-05-08 17:55 50.33999 30.07275 22824 ft 474 kts 63°
2026-05-08 17:55 50.35388 30.11887 22033 ft 463 kts 63°
2026-05-08 17:56 50.36734 30.16362 21269 ft 453 kts 63°
2026-05-08 17:56 50.38067 30.20802 20514 ft 444 kts 63°
2026-05-08 17:56 50.39384 30.25192 19764 ft 445 kts 63°
2026-05-08 17:56 50.40708 30.29563 18941 ft 444 kts 63°
2026-05-08 17:57 50.42043 30.33913 18343 ft 438 kts 63°
2026-05-08 17:57 50.43344 30.38171 17954 ft 426 kts 63°
2026-05-08 17:57 50.44588 30.42247 17598 ft 415 kts 63°
2026-05-08 17:57 50.45815 30.46279 17247 ft 402 kts 63°
2026-05-08 17:58 50.46997 30.50169 16917 ft 386 kts 63°
2026-05-08 17:58 50.48124 30.53882 16612 ft 371 kts 63°
2026-05-08 17:58 50.49209 30.57463 16322 ft 355 kts 63°
2026-05-08 17:58 50.50251 30.60906 16048 ft 341 kts 63°
2026-05-08 17:59 50.51246 30.64201 15789 ft 327 kts 63°
2026-05-08 17:59 50.52204 30.67375 15539 ft 314 kts 63°
2026-05-08 17:59 50.53121 30.70417 15299 ft 302 kts 63°
2026-05-08 17:59 50.54025 30.73330 15017 ft 291 kts 58°
2026-05-08 18:00 50.55309 30.75708 14585 ft 281 kts 38°
2026-05-08 18:00 50.58865 30.77620 13992 ft 271 kts
2026-05-08 18:00 50.60743 30.77872 13665 ft 270 kts 359°
2026-05-08 18:01 50.62584 30.78061 13310 ft 268 kts 359°
2026-05-08 18:01 50.64441 30.78229 12938 ft 266 kts 358°
2026-05-08 18:01 50.66296 30.78386 12532 ft 266 kts 358°
2026-05-08 18:01 50.68145 30.78536 12168 ft 265 kts 358°
2026-05-08 18:02 50.69979 30.78680 11829 ft 262 kts 358°
2026-05-08 18:02 50.71180 30.78773 11606 ft 261 kts 358°
2026-05-08 18:02 50.73589 30.78958 11151 ft 258 kts 358°
2026-05-08 18:02 50.75371 30.79094 10812 ft 256 kts 358°
2026-05-08 18:03 50.77140 30.79231 10472 ft 254 kts 359°
2026-05-08 18:03 50.78869 30.79940 10024 ft 264 kts 20°
2026-05-08 18:03 50.80336 30.81698 9687 ft 266 kts 41°
2026-05-08 18:03 50.81395 30.84077 9348 ft 268 kts 62°
2026-05-08 18:04 50.81761 30.86936 9041 ft 265 kts 88°
2026-05-08 18:04 50.81376 30.89756 8782 ft 265 kts 113°
2026-05-08 18:04 50.80308 30.92097 8525 ft 262 kts 138°
2026-05-08 18:04 50.78776 30.93518 8224 ft 254 kts 163°
2026-05-08 18:05 50.77085 30.93861 7911 ft 245 kts 186°
2026-05-08 18:05 50.75437 30.93358 7637 ft 239 kts 199°
2026-05-08 18:05 50.73804 30.92805 7288 ft 241 kts 194°
2026-05-08 18:05 50.72134 30.92450 6898 ft 243 kts 191°
2026-05-08 18:06 50.70451 30.92181 6535 ft 243 kts 189°
2026-05-08 18:06 50.68765 30.91968 6196 ft 243 kts 187°
2026-05-08 18:06 50.67082 30.91791 5851 ft 242 kts 186°
2026-05-08 18:06 50.65399 30.91634 5514 ft 241 kts 185°
2026-05-08 18:07 50.63729 30.91491 5201 ft 240 kts 184°
2026-05-08 18:07 50.62069 30.91358 4927 ft 236 kts 183°
2026-05-08 18:07 50.60448 30.91445 4712 ft 230 kts 177°
2026-05-08 18:07 50.58872 30.91612 4516 ft 223 kts 176°
2026-05-08 18:08 50.57347 30.91765 4335 ft 216 kts 176°
2026-05-08 18:08 50.55875 30.91907 4162 ft 209 kts 176°
2026-05-08 18:08 50.54410 30.91960 3968 ft 212 kts 180°
2026-05-08 18:08 50.52952 30.91869 3691 ft 212 kts 182°
2026-05-08 18:09 50.51502 30.91775 3498 ft 201 kts 182°
2026-05-08 18:09 50.50152 30.91693 3228 ft 189 kts 182°
2026-05-08 18:09 50.48871 30.91608 2978 ft 178 kts 182°
2026-05-08 18:09 50.47672 30.91513 2751 ft 167 kts 183°
2026-05-08 18:10 50.46574 30.91427 2573 ft 150 kts 182°
2026-05-08 18:10 50.45554 30.91350 2332 ft 144 kts 182°
2026-05-08 18:10 50.44553 30.91275 2120 ft 144 kts 182°
2026-05-08 18:10 50.43553 30.91200 1925 ft 144 kts 182°
2026-05-08 18:11 50.42557 30.91127 1728 ft 143 kts 182°
2026-05-08 18:11 50.41561 30.91053 1535 ft 143 kts 182°
2026-05-08 18:11 50.40571 30.90980 1345 ft 142 kts 182°
2026-05-08 18:11 50.39594 30.90908 1158 ft 142 kts 182°
2026-05-08 18:12 50.38608 30.90835 969 ft 142 kts 182°
2026-05-08 18:12 50.37626 30.90763 783 ft 141 kts 182°
2026-05-08 18:12 50.36646 30.90691 595 ft 141 kts 182°
2026-05-08 18:12 50.35674 30.90619 440 ft 133 kts 182°
2026-05-08 18:13 50.35019 30.90570 439 ft 50 kts 182°
2026-05-08 18:13 50.34668 30.90543 439 ft 49 kts 182°
2026-05-08 18:13 50.34364 30.90520 438 ft 35 kts 182°
2026-05-08 18:13 50.34158 30.90430 439 ft 18 kts 213°
2026-05-08 18:14 50.34144 30.90417 438 ft 0 kts 211°
2026-05-08 18:14 50.34139 30.90411 438 ft 3 kts 211°
2026-05-08 18:14 50.34107 30.90381 438 ft 8 kts 211°
2026-05-08 18:14 50.34049 30.90325 438 ft 13 kts 211°
2026-05-08 18:15 50.33958 30.90238 438 ft 15 kts 211°
2026-05-08 18:15 50.33844 30.90162 439 ft 16 kts 185°
2026-05-08 18:15 50.33729 30.90150 438 ft 20 kts 182°
2026-05-08 18:15 50.33617 30.90134 438 ft 14 kts 212°
2026-05-08 18:16 50.33599 30.90020 438 ft 14 kts 275°
2026-05-08 18:16 50.33597 30.89924 438 ft 12 kts 237°
2026-05-08 18:16 50.33549 30.89895 438 ft 0 kts 183°